FENGYUN 1C DEB *, 47036

Orbit data source: Space-Track

FENGYUN 1C DEB *, 47036 is space debris in SSO originally from a launch on Mon, 10 May 1999 UTC launched from the Taiyaun Space Center, China (TSC). Fengyun 1C debris stems from the Chinese weather satellite Fengyun-1C, which was intentionally destroyed by a Chinese anti-satellite missile in 2007. This event dramatically increased the amount of space debris, with thousands of trackable fragments posing hazards to satellites and human spaceflight. The Fengyun 1C debris cloud has become a focal point in discussions about space sustainability and the need for international regulations to prevent the creation of new debris.

Loading next visibility...
Identifier
47036, 1999-025FBN
Orbit
SSO
Country
Flag of CNCN / PRC
Related business
Manufacturer
Unknown
Mission
Spacecraft
Bus & Motor
Unknown
Mass
Unknown
Launch date (UTC)
1999-05-10 (27 years ago)
Launch vehicle
Unknown
Launch site
Taiyaun Space Center, China (TSC)
Object type
Payload
Rocket body
Debris
Shape & HBR
Unknown shape, 0.050 m
Radar Cross Section
Small (<0.1 m²)

Expand to show TLE details & history
Last TLE update: 2 days ago

TLE from 2 days ago
0 FENGYUN 1C DEB *
1 47036U 99025FBN 26264.38747615  .00000105  00000-0  74239-4 0  9991
2 47036  98.6859 305.9787 0067812  10.4564   2.2470 14.15320252639255
Epoch: 2026-09-21T09:17Z
TLE epoch observation values (Epoch: 2026-09-21T09:17:57.939Z)
Latitude
12.54669°
Longitude
164.28126°
Altitude
794.448 km
Speed
7.483 km/s
True Right ascension
20h 16m 09s
True Declination
12° 28' 28"
Sunlit
Object was in full shadow at epoch
Visualization orbit readout
Latitude
Unknown
Longitude
Unknown
Altitude
Unknown
Speed
Unknown
Apparent Right ascension
Unknown
Apparent Declination
Unknown
Sunlit
N/A
Visualization observer readout
Local Sidereal Time
12:56:52
Azimuth
Unknown
Elevation
Unknown
Doppler factor
Unknown
Orbital elements
Apogee altitude
887.323 km
Perigee altitude
789.45 km
Semi-major axis
7,216.523 km
Eccentricity
0.00678
Inclination
98.6859°
RAAN
305.9787°
Arg. of periapsis
10.4564°
True anomaly
2.27773°
Mean anomaly
2.247°
Eccentric anomaly
2.26234°
Mean motion
3.54039 °/min
Orbital period
101.68 mins
BSTAR
0.000074239
Loading maneuver chart data...
Computing Atmospheric mass density...

Documentation

Showing up to 5 results
|